When you browse on this site, cookies collect data to enhance your experience and personalize the content and advertising you see.
Visit our Privacy Policy to learn more. By continuing to use the site, you agree to this use of cookies and data.
  • In Hungary
  • List of Countries
  • For 7 days
  • Water Temperature
  • Satellite Maps
  • Weather Map
  • News
  • Weather Widgets
  • user-avatar
    Login

    Hourly Weather Maradi

    Today, 20 January, Sunday

    Time Temperature Precipitation Wind Pressure Humidity
    00:00 +25°C° 0 mm 3 mps 729 mmHg 14%
    01:00 +25°C° 0 mm 3 mps 729 mmHg 14%
    02:00 +24°C° 0 mm 3 mps 729 mmHg 15%
    03:00 +23°C° 0 mm 2 mps 729 mmHg 15%
    04:00 +21°C° 0 mm 2 mps 729 mmHg 16%
    05:00 +20°C° 0 mm 2 mps 729 mmHg 18%
    06:00 +21°C° 0 mm 1 mps 729 mmHg 20%
    07:00 +23°C° 0 mm 2 mps 730 mmHg 18%
    08:00 +26°C° 0 mm 2 mps 730 mmHg 15%
    09:00 +29°C° 0 mm 3 mps 731 mmHg 12%
    10:00 +31°C° 0 mm 3 mps 730 mmHg 12%
    11:00 +34°C° 0 mm 2 mps 730 mmHg 11%
    12:00 +35°C° 0 mm 1 mps 729 mmHg 10%
    13:00 +37°C° 0 mm 2 mps 729 mmHg 11%
    14:00 +37°C° 0 mm 2 mps 728 mmHg 11%
    15:00 +38°C° 0 mm 2 mps 728 mmHg 12%
    16:00 +36°C° 0 mm 2 mps 728 mmHg 14%
    17:00 +34°C° 0 mm 2 mps 728 mmHg 15%
    18:00 +30°C° 0 mm 3 mps 728 mmHg 17%
    19:00 +30°C° 0 mm 3 mps 728 mmHg 17%
    20:00 +29°C° 0 mm 3 mps 729 mmHg 17%
    21:00 +28°C° 0 mm 4 mps 729 mmHg 17%
    22:00 +27°C° 0 mm 4 mps 729 mmHg 16%
    23:00 +26°C° 0 mm 4 mps 729 mmHg 15%

    Tomorrow, 21 January, Monday

    Time Temperature Precipitation Wind Pressure Humidity
    00:00 +26°C° 0 mm 4 mps 729 mmHg 13%
    01:00 +25°C° 0 mm 3 mps 729 mmHg 13%
    02:00 +24°C° 0 mm 3 mps 729 mmHg 12%
    03:00 +22°C° 0 mm 3 mps 728 mmHg 12%
    04:00 +22°C° 0 mm 3 mps 729 mmHg 11%
    05:00 +22°C° 0 mm 3 mps 729 mmHg 11%
    06:00 +21°C° 0 mm 3 mps 729 mmHg 10%
    07:00 +25°C° 0 mm 3 mps 730 mmHg 8%
    08:00 +27°C° 0 mm 4 mps 730 mmHg 7%
    09:00 +29°C° 0 mm 4 mps 731 mmHg 6%
    10:00 +31°C° 0 mm 3 mps 731 mmHg 7%
    11:00 +34°C° 0 mm 3 mps 730 mmHg 8%
    12:00 +36°C° 0 mm 3 mps 730 mmHg 9%
    13:00 +37°C° 0 mm 2 mps 729 mmHg 10%
    14:00 +36°C° 0 mm 1 mps 728 mmHg 12%
    15:00 +35°C° 0 mm 0 mps 728 mmHg 13%
    16:00 +34°C° 0 mm 1 mps 728 mmHg 16%
    17:00 +32°C° 0 mm 1 mps 727 mmHg 19%
    18:00 +30°C° 0 mm 2 mps 727 mmHg 21%
    19:00 +29°C° 0 mm 2 mps 728 mmHg 21%
    20:00 +29°C° 0 mm 2 mps 728 mmHg 21%
    21:00 +28°C° 0 mm 3 mps 729 mmHg 21%
    22:00 +28°C° 0 mm 3 mps 729 mmHg 21%
    23:00 +27°C° 0 mm 3 mps 729 mmHg 21%

    Day after tomorrow, 22 January, Tuesday

    Time Temperature Precipitation Wind Pressure Humidity
    00:00 +26°C° 0 mm 3 mps 728 mmHg 22%
    01:00 +26°C° 0 mm 3 mps 728 mmHg 21%
    02:00 +25°C° 0 mm 3 mps 728 mmHg 21%
    03:00 +24°C° 0 mm 3 mps 727 mmHg 21%
    04:00 +23°C° 0 mm 2 mps 728 mmHg 20%
    05:00 +23°C° 0 mm 2 mps 728 mmHg 19%
    06:00 +21°C° 0 mm 2 mps 728 mmHg 19%
    07:00 +25°C° 0 mm 2 mps 729 mmHg 17%
    08:00 +28°C° 0 mm 3 mps 730 mmHg 15%
    09:00 +31°C° 0 mm 3 mps 730 mmHg 12%
    10:00 +34°C° 0 mm 2 mps 730 mmHg 12%
    11:00 +35°C° 0 mm 1 mps 729 mmHg 11%
    12:00 +35°C° 0 mm 0 mps 729 mmHg 11%
    13:00 +37°C° 0 mm 1 mps 728 mmHg 11%
    14:00 +39°C° 0 mm 2 mps 727 mmHg 11%
    15:00 +39°C° 0 mm 3 mps 726 mmHg 11%
    16:00 +37°C° 0 mm 3 mps 727 mmHg 12%
    17:00 +34°C° 0 mm 3 mps 727 mmHg 13%
    18:00 +31°C° 0 mm 3 mps 727 mmHg 15%
    19:00 +30°C° 0 mm 3 mps 727 mmHg 14%
    20:00 +29°C° 0 mm 4 mps 728 mmHg 13%
    21:00 +28°C° 0 mm 4 mps 728 mmHg 12%
    22:00 +27°C° 0 mm 4 mps 728 mmHg 11%
    23:00 +26°C° 0 mm 4 mps 728 mmHg 10%

    23 January, Wednesday

    Time Temperature Precipitation Wind Pressure Humidity
    00:00 +26°C° 0 mm 4 mps 728 mmHg 9%
    01:00 +25°C° 0 mm 3 mps 727 mmHg 9%
    02:00 +24°C° 0 mm 3 mps 727 mmHg 8%
    03:00 +24°C° 0 mm 3 mps 727 mmHg 8%
    04:00 +22°C° 0 mm 3 mps 727 mmHg 8%
    05:00 +21°C° 0 mm 2 mps 727 mmHg 7%
    06:00 +20°C° 0 mm 2 mps 728 mmHg 7%
    07:00 +24°C° 0 mm 3 mps 728 mmHg 6%
    08:00 +27°C° 0 mm 3 mps 729 mmHg 5%
    09:00 +29°C° 0 mm 4 mps 730 mmHg 4%
    10:00 +32°C° 0 mm 4 mps 729 mmHg 4%
    11:00 +34°C° 0 mm 5 mps 729 mmHg 4%
    12:00 +36°C° 0 mm 5 mps 728 mmHg 4%
    13:00 +36°C° 0 mm 5 mps 728 mmHg 4%
    14:00 +37°C° 0 mm 5 mps 727 mmHg 4%
    15:00 +37°C° 0 mm 5 mps 726 mmHg 5%
    16:00 +35°C° 0 mm 4 mps 727 mmHg 6%
    17:00 +32°C° 0 mm 4 mps 727 mmHg 7%
    18:00 +28°C° 0 mm 3 mps 727 mmHg 8%
    19:00 +27°C° 0 mm 3 mps 727 mmHg 8%
    20:00 +26°C° 0 mm 3 mps 728 mmHg 8%
    21:00 +24°C° 0 mm 3 mps 728 mmHg 8%
    22:00 +24°C° 0 mm 3 mps 728 mmHg 8%
    23:00 +22°C° 0 mm 3 mps 728 mmHg 8%

    24 January, Thursday

    Time Temperature Precipitation Wind Pressure Humidity
    00:00 +21°C° 0 mm 3 mps 728 mmHg 7%
    01:00 +21°C° 0 mm 3 mps 727 mmHg 9%
    02:00 +20°C° 0 mm 3 mps 727 mmHg 10%
    03:00 +20°C° 0 mm 3 mps 727 mmHg 11%
    04:00 +19°C° 0 mm 3 mps 727 mmHg 13%
    05:00 +18°C° 0 mm 3 mps 727 mmHg 15%
    06:00 +18°C° 0 mm 3 mps 728 mmHg 17%
    07:00 +20°C° 0 mm 3 mps 728 mmHg 15%
    08:00 +24°C° 0 mm 3 mps 729 mmHg 14%
    09:00 +26°C° 0 mm 4 mps 729 mmHg 12%
    10:00 +28°C° 0 mm 3 mps 729 mmHg 11%
    11:00 +30°C° 0 mm 3 mps 728 mmHg 9%
    12:00 +34°C° 0 mm 2 mps 728 mmHg 8%
    13:00 +34°C° 0 mm 3 mps 727 mmHg 8%
    14:00 +35°C° 0 mm 3 mps 727 mmHg 8%
    15:00 +36°C° 0 mm 4 mps 726 mmHg 7%
    16:00 +33°C° 0 mm 3 mps 726 mmHg 9%
    17:00 +29°C° 0 mm 2 mps 726 mmHg 11%
    18:00 +26°C° 0 mm 2 mps 726 mmHg 13%
    19:00 +25°C° 0 mm 2 mps 727 mmHg 13%
    20:00 +24°C° 0 mm 2 mps 728 mmHg 14%
    21:00 +24°C° 0 mm 2 mps 728 mmHg 14%
    22:00 +23°C° 0 mm 2 mps 728 mmHg 14%
    23:00 +23°C° 0 mm 2 mps 728 mmHg 14%

    25 January, Friday

    Time Temperature Precipitation Wind Pressure Humidity
    00:00 +21°C° 0 mm 2 mps 728 mmHg 14%
    01:00 +21°C° 0 mm 2 mps 728 mmHg 14%
    02:00 +20°C° 0 mm 2 mps 727 mmHg 13%
    03:00 +20°C° 0 mm 2 mps 727 mmHg 13%
    04:00 +20°C° 0 mm 2 mps 727 mmHg 13%
    05:00 +20°C° 0 mm 2 mps 728 mmHg 13%
    06:00 +19°C° 0 mm 2 mps 728 mmHg 13%
    07:00 +22°C° 0 mm 3 mps 729 mmHg 12%
    08:00 +26°C° 0 mm 3 mps 730 mmHg 10%
    09:00 +29°C° 0 mm 3 mps 730 mmHg 8%
    10:00 +30°C° 0 mm 3 mps 730 mmHg 8%
    11:00 +32°C° 0 mm 2 mps 729 mmHg 7%
    12:00 +35°C° 0 mm 2 mps 729 mmHg 7%
    13:00 +36°C° 0 mm 2 mps 728 mmHg 7%
    14:00 +37°C° 0 mm 2 mps 728 mmHg 6%
    15:00 +37°C° 0 mm 3 mps 727 mmHg 6%
    16:00 +35°C° 0 mm 3 mps 727 mmHg 7%
    17:00 +31°C° 0 mm 3 mps 727 mmHg 9%
    18:00 +29°C° 0 mm 3 mps 727 mmHg 10%
    19:00 +27°C° 0 mm 3 mps 728 mmHg 10%
    20:00 +26°C° 0 mm 3 mps 728 mmHg 11%
    21:00 +25°C° 0 mm 2 mps 729 mmHg 11%
    22:00 +25°C° 0 mm 3 mps 729 mmHg 11%
    23:00 +24°C° 0 mm 3 mps 728 mmHg 11%
    Show more